Location: Newark
(47.4417°N, 1.1394°W)
Time: 15:19:34
(UTC+00:00)

Envisat - Pass Details

Date: 19 November 2019
Orbit: 764 x 766 km, 98.1° (Epoch: 06 December)

Event Time Altitude Azimuth Distance (km) Brightness Sun altitude
Rises 05:58:43 0° 24° (NNE) 3,242 6.4 -12.7°
Reaches altitude 10° 06:01:29 10° 39° (NE) 2,311 5.8 -12.3°
Maximum altitude 06:05:34 24° 92° (E) 1,555 5.6 -11.6°
Drops below altitude 10° 06:09:36 10° 146° (SE) 2,296 6.3 -10.9°
Sets 06:12:19 0° 160° (SSE) 3,217 6.8 -10.5°
